Wind_Speed
9 9 9 10 12 12 11 9 8 8 8 9 10 10 11 12 12 13 14 14 15 16 16 17 18 19 20 21 21 22 20 21
11 10 10 10 12 10 9 8 7 7 8 10 11 11 12 12 12 13 13 14 14 15 15 16 18 19 19 20 21 22 23 23
11 11 10 11 12 10 9 8 7 9 10 11 11 12 13 13 14 15 15 16 17 18 20 20 22 23 24 24 23 24 24 24
13 13 11 12 13 12 10 9 10 10 12 13 14 15 15 16 16 16 17 17 18 20 21 23 24 27 28 29 29 29 29 28
15 15 13 13 14 14 12 12 12 13 14 15 16 17 18 19 19 19 19 19 19 21 23 25 27 29 31 32 33 34 34 33
16 16 15 14 16 16 15 14 14 15 16 17 18 19 20 20 20 19 19 20 23 25 27 28 30 32 33 34 35 36 36 36
18 18 18 16 18 18 17 16 16 17 17 18 20 21 21 21 20 20 21 24 26 29 30 31 32 33 34 35 36 37 37 37
20 20 20 19 20 20 19 18 19 19 19 20 22 23 23 22 22 23 25 27 30 31 32 32 32 33 34 36 36 36 35 36
22 23 22 21 22 23 22 21 21 22 21 22 24 25 25 24 24 26 28 30 31 32 34 35 34 32 32 32 33 34 34 35
25 25 25 24 24 25 25 23 22 23 23 25 26 26 26 25 27 28 31 32 32 34 34 33 32 31 31 33 33 33 33 34
27 27 27 27 27 28 26 25 24 25 26 26 27 27 27 27 29 30 31 32 33 34 35 34 33 32 32 32 33 33 33 33
29 30 31 31 30 29 28 27 26 26 27 27 28 28 28 29 30 31 32 33 34 34 36 37 35 32 31 31 32 32 31 32
31 32 32 32 31 31 30 29 28 28 28 28 29 28 28 29 31 31 32 33 33 34 34 35 35 34 32 28 30 29 28 28
31 33 34 34 33 33 32 30 29 30 29 29 28 28 28 29 30 31 31 32 33 34 35 34 35 36 35 34 32 27 24 26
31 33 34 34 35 34 33 32 31 31 30 29 28 27 27 28 29 30 31 32 32 33 34 34 34 34 35 34 36 36 35 26
30 31 32 33 35 35 34 33 33 32 31 29 26 25 26 27 28 30 31 32 32 33 34 35 33 32 31 32 33 35 40 44
29 30 29 31 33 34 34 34 33 32 31 28 25 25 25 26 28 30 32 33 34 35 35 35 34 33 32 30 30 31 33 37
33 30 27 26 29 32 34 35 32 32 30 27 26 26 25 26 29 31 33 34 35 36 36 34 33 32 32 31 32 33 33 36
38 32 27 24 26 29 32 34 33 31 29 28 27 26 26 27 29 31 32 33 35 36 35 33 32 31 31 31 33 34 35 37
40 33 28 24 24 27 31 33 33 30 28 28 27 27 27 28 29 30 31 33 35 35 33 31 31 31 31 32 33 33 32 33
Wind_Direction
220 242 261 281 287 282 278 279 287 295 298 303 306 309 310 309 308 308 308 307 305 305 306 305 304 303 303 302 299 297 299 296
230 250 270 285 279 266 263 269 281 294 310 317 319 325 324 323 322 320 319 316 315 315 314 313 311 309 308 306 303 300 295 289
244 256 269 279 271 260 258 264 277 291 303 309 314 318 317 315 314 312 310 310 311 311 311 309 307 305 303 300 297 295 292 290
251 259 266 274 264 257 254 265 279 291 301 309 315 315 312 310 308 305 303 304 305 306 306 305 304 302 301 299 296 292 290 287
255 263 265 268 255 248 255 267 280 294 301 309 312 311 311 310 308 304 303 303 302 301 301 300 300 298 297 296 296 294 293 291
258 264 267 268 250 250 259 270 282 288 296 304 306 305 305 306 303 299 299 299 300 300 298 297 296 295 293 292 291 290 289 289
259 262 264 259 246 252 258 267 276 284 293 302 306 305 303 301 298 296 296 298 299 298 296 295 295 294 293 292 290 288 288 287
259 260 261 253 246 252 257 264 272 280 291 301 305 305 303 300 296 295 297 297 297 297 297 295 294 294 293 292 291 291 289 286
258 258 257 252 249 253 257 262 269 278 288 297 302 302 300 296 294 295 298 300 301 301 300 300 299 299 297 295 295 294 293 291
257 256 253 250 249 251 255 260 269 277 285 293 300 300 298 295 295 298 300 301 301 301 301 301 302 301 299 298 297 296 295 293
257 252 252 252 250 252 256 262 268 276 283 292 300 300 296 295 296 299 301 304 306 305 304 304 303 302 300 299 296 296 295 293
262 257 255 256 253 254 257 262 268 276 285 294 298 298 295 296 299 303 306 309 309 307 306 305 304 302 302 301 299 298 298 295
260 257 257 257 255 255 257 261 267 275 283 289 294 293 293 298 302 306 310 311 310 308 307 306 305 305 304 302 300 299 300 296
261 257 257 256 255 256 258 261 267 273 280 286 290 290 293 298 303 308 311 313 313 312 310 310 310 308 307 305 303 302 300 298
263 260 257 255 255 257 259 261 266 272 278 285 288 290 295 301 305 311 315 317 316 314 313 312 311 310 309 312 312 310 307 307
267 262 255 254 255 257 258 261 265 271 277 283 287 291 296 303 311 317 319 320 319 317 317 315 313 312 314 315 315 314 312 310
264 259 254 253 255 257 259 261 264 269 274 279 285 289 296 306 314 318 321 322 321 322 321 316 314 315 315 313 314 316 316 315
258 258 255 255 258 259 259 260 263 267 273 280 284 289 299 308 314 318 322 324 324 322 319 315 315 314 313 313 315 315 314 312
254 258 258 260 263 261 260 259 261 266 273 278 283 291 300 306 311 317 321 321 320 319 317 315 314 312 311 312 313 314 313 312
254 257 259 263 268 267 261 258 259 264 270 277 283 291 298 303 310 316 318 318 317 318 315 313 311 310 311 312 312 312 314 314
Height
3148 3149 3150 3150 3149 3148 3148 3148 3148 3147 3147 3146 3145 3145 3144 3142 3141 3140 3139 3138 3137 3136 3135 3134 3133 3132 3131 3130 3129 3128 3127 3125
3147 3148 3149 3149 3148 3147 3147 3147 3146 3146 3145 3144 3143 3142 3141 3140 3139 3139 3138 3137 3135 3134 3133 3132 3130 3128 3128 3127 3125 3124 3122 3121
3145 3147 3147 3146 3146 3146 3146 3146 3145 3144 3143 3143 3142 3141 3140 3138 3137 3137 3135 3134 3133 3131 3130 3128 3126 3125 3124 3123 3121 3120 3118 3116
3143 3144 3144 3144 3143 3143 3144 3143 3143 3142 3142 3141 3140 3138 3137 3136 3135 3134 3132 3131 3129 3127 3126 3124 3122 3121 3119 3117 3116 3114 3112 3111
3139 3140 3141 3141 3140 3141 3141 3141 3140 3139 3139 3138 3137 3136 3134 3133 3132 3130 3129 3127 3125 3123 3122 3120 3118 3117 3115 3112 3110 3108 3106 3105
3136 3137 3137 3138 3138 3138 3138 3138 3137 3137 3136 3135 3134 3133 3131 3129 3128 3127 3125 3124 3122 3120 3118 3116 3114 3111 3109 3107 3104 3101 3100 3099
3132 3133 3134 3135 3135 3135 3134 3134 3134 3133 3132 3132 3131 3130 3128 3126 3125 3123 3122 3120 3118 3115 3113 3111 3109 3106 3103 3100 3097 3095 3093 3093
3127 3128 3129 3130 3131 3131 3131 3131 3130 3130 3129 3129 3127 3126 3124 3122 3120 3119 3117 3115 3113 3110 3108 3105 3103 3100 3097 3093 3090 3088 3087 3085
3122 3123 3124 3125 3126 3127 3127 3127 3127 3126 3126 3125 3123 3122 3120 3118 3116 3114 3112 3110 3107 3104 3101 3099 3096 3093 3090 3086 3083 3081 3079 3077
3116 3117 3118 3120 3121 3121 3122 3122 3122 3122 3121 3120 3119 3117 3115 3113 3111 3109 3106 3104 3101 3098 3095 3092 3090 3087 3084 3080 3077 3075 3073 3070
3110 3112 3112 3114 3115 3116 3117 3118 3117 3117 3116 3115 3114 3112 3110 3107 3105 3103 3101 3098 3095 3091 3087 3084 3083 3081 3078 3075 3071 3069 3067 3063
3105 3107 3107 3108 3110 3111 3112 3112 3111 3111 3110 3109 3108 3106 3104 3102 3101 3098 3095 3092 3089 3085 3081 3077 3075 3073 3071 3069 3064 3062 3059 3056
3099 3100 3101 3102 3103 3105 3106 3106 3106 3106 3105 3104 3103 3101 3098 3096 3095 3092 3089 3087 3083 3080 3076 3072 3068 3065 3064 3063 3058 3055 3052 3049
3093 3094 3095 3096 3097 3098 3100 3100 3100 3099 3099 3098 3098 3095 3093 3091 3089 3086 3084 3080 3077 3073 3069 3066 3062 3056 3054 3050 3049 3050 3047 3043
3088 3089 3089 3090 3091 3092 3093 3093 3093 3093 3092 3092 3091 3089 3087 3085 3083 3080 3077 3074 3071 3067 3063 3060 3056 3052 3047 3044 3039 3035 3033 3037
3082 3082 3082 3083 3083 3085 3087 3087 3086 3086 3086 3086 3085 3083 3082 3080 3077 3074 3071 3069 3065 3061 3057 3053 3049 3046 3043 3040 3035 3031 3023 3019
3075 3075 3075 3076 3078 3079 3079 3080 3080 3079 3079 3079 3078 3077 3075 3073 3071 3068 3065 3062 3059 3055 3052 3047 3043 3040 3037 3035 3033 3028 3022 3015
3068 3069 3069 3070 3071 3072 3073 3074 3074 3074 3074 3073 3072 3071 3069 3067 3064 3062 3059 3056 3053 3050 3046 3042 3037 3034 3032 3028 3024 3020 3016 3012
3060 3062 3064 3065 3066 3066 3066 3067 3067 3068 3068 3067 3067 3066 3064 3062 3059 3056 3053 3050 3047 3044 3040 3036 3033 3030 3025 3023 3020 3014 3010 3005
3053 3055 3057 3059 3060 3060 3060 3061 3061 3062 3062 3062 3062 3060 3059 3057 3054 3051 3048 3044 3041 3037 3032 3031 3028 3025 3021 3016 3013 3010 3005 3000